TimeCDT,TemperatureF,Dew PointF,Humidity,Sea Level PressureIn,VisibilityMPH,Wind Direction,Wind SpeedMPH,Gust SpeedMPH,PrecipitationIn,Events,Conditions,WindDirDegrees,DateUTC
12:53 AM,81.0,70.0,69,30.04,10.0,South,4.6,-,N/A,,Clear,190,2013-07-09 05:53:00
1:53 AM,80.1,69.1,69,30.04,10.0,Calm,Calm,-,N/A,,Clear,0,2013-07-09 06:53:00
2:53 AM,78.1,70.0,76,30.03,10.0,SSE,3.5,-,N/A,,Clear,160,2013-07-09 07:53:00
3:53 AM,77.0,69.1,76,30.03,10.0,Calm,Calm,-,N/A,,Clear,0,2013-07-09 08:53:00
4:53 AM,79.0,69.1,72,30.03,10.0,SSW,3.5,-,N/A,,Clear,210,2013-07-09 09:53:00
5:53 AM,78.1,70.0,76,30.03,10.0,South,3.5,-,N/A,,Clear,170,2013-07-09 10:53:00
6:53 AM,79.0,70.0,74,30.03,10.0,South,4.6,-,N/A,,Clear,190,2013-07-09 11:53:00
7:53 AM,81.0,71.1,72,30.03,10.0,Variable,3.5,-,N/A,,Clear,0,2013-07-09 12:53:00
8:53 AM,82.0,72.0,71,30.04,10.0,SSW,6.9,-,N/A,,Clear,200,2013-07-09 13:53:00
9:53 AM,86.0,72.0,63,30.03,10.0,SSW,6.9,-,N/A,,Clear,210,2013-07-09 14:53:00
10:53 AM,88.0,73.0,61,30.04,10.0,SW,4.6,-,N/A,,Clear,230,2013-07-09 15:53:00
11:53 AM,91.9,73.0,54,30.02,10.0,Variable,6.9,-,N/A,,Clear,0,2013-07-09 16:53:00
12:53 PM,93.0,72.0,50,30.01,10.0,SW,10.4,17.3,N/A,,Partly Cloudy,230,2013-07-09 17:53:00
1:53 PM,93.0,73.0,52,30.01,10.0,Variable,5.8,-,N/A,,Partly Cloudy,0,2013-07-09 18:53:00
2:53 PM,93.9,71.1,47,29.99,10.0,Variable,6.9,-,N/A,,Partly Cloudy,0,2013-07-09 19:53:00
3:53 PM,93.9,70.0,46,29.96,10.0,South,8.1,-,N/A,,Scattered Clouds,190,2013-07-09 20:53:00
4:53 PM,91.9,72.0,52,29.94,10.0,South,6.9,-,N/A,,Scattered Clouds,190,2013-07-09 21:53:00
5:53 PM,93.0,73.0,52,29.93,10.0,SSW,5.8,-,N/A,,Scattered Clouds,210,2013-07-09 22:53:00
6:53 PM,91.0,72.0,53,29.93,10.0,South,5.8,-,N/A,,Scattered Clouds,190,2013-07-09 23:53:00
7:53 PM,88.0,73.0,61,29.93,10.0,South,3.5,-,N/A,,Clear,180,2013-07-10 00:53:00
8:53 PM,84.9,73.9,69,29.92,10.0,South,3.5,-,N/A,,Scattered Clouds,170,2013-07-10 01:53:00
9:53 PM,82.9,73.0,72,29.93,10.0,South,3.5,-,N/A,,Clear,170,2013-07-10 02:53:00
10:53 PM,82.9,73.0,72,29.94,10.0,Calm,Calm,-,N/A,,Clear,0,2013-07-10 03:53:00
11:53 PM,81.0,73.9,79,29.94,10.0,Calm,Calm,-,N/A,,Clear,0,2013-07-10 04:53:00